Find STARLINK-38092

NORAD ID: 799501189 Int'l Des: 2026-160M Constellation: starlink operational

現在のビュー

3D地球を読み込み中...

About STARLINK-38092

STARLINK-38092 (NORAD 799501189) is a starlink constellation satellite launched Jul 9, 2026

STARLINK-38092について

説明を読み込み中...

次回通過

Passes for default location (London). Set your location on the main map for personalized predictions.

高度履歴

Loading altitude history...

軌道要素

1 99999C 2026160M 26195.41993056 .00474470 00000-0 611400-4 0 1952
2 99999 70.0023 28.5237 0009944 259.0627 138.7939 16.06597213 14
Epoch: Jul 14, 2026 • Age: 7 hours